カタログに戻る

SL-14 R/B

運用中PO
NORAD 20466·ROCKET BODY·🇷🇺 Russia

打ち上げ Jan 30, 1990 から Plesetsk Cosmodrome

Loading…

次のパス (今後24時間)

TLE

最新Source: Space-Track

元期: Sep 14, 2026, 01:21 UTC

1 20466U 90010B   26257.05649995  .00000256  00000-0  27976-4 0  9995
2 20466  82.4986  90.4775 0020770  42.2826 317.9986 14.83692022956414

AllMySatでSL-14 R/Bをリアルタイム追跡

Download on the App Store